Flag for U.S.A. Weather past 2 weeks in New Haven, Connecticut, U.S.A.

Now
83 °F

Sunny.


Feels Like: 84 °F
Forecast: 68 / 85 °F
Wind: 6 mph from Southwest

Location: Tweed-New Haven Airport

Current Time: Sep 1, 2015 at 6:26:50 PM

Latest Report: Sep 1, 2015 at 4:53 PM


Visibility: 10 mi

Pressure: 30.01 "Hg

Humidity: 50%

Dew point: 62 °F

Location of New HavenLocation

Historic Weather in New Haven — Graph

°F

New Haven temperature yesterday

Maximum temperature yesterday: 84 °F (at 3:53 PM)
Minimum temperature yesterday: 74 °F (at 3:53 AM)
Average temperature yesterday: 78 °F

Past Weeks' High & Low Weather Summary

 TemperatureHumidityPressure
High87 °F (Aug 17, 3:53 PM)97% (Aug 19, 4:53 AM)30.22 "Hg (Aug 19, 4:53 AM)
Low57 °F (Aug 29, 3:53 AM)39% (Aug 26, 5:53 PM)29.82 "Hg (Aug 25, 4:53 PM)
Average75 °F74%30.02 "Hg
* Reported Aug 17 3:53 PM — Sep 1 3:53 PM, New Haven, Weather by CustomWeather, © 2015

Note: Actual official high and low records may vary slightly from our data, if they occured in-between our weather recording intervals... More about our weather records

Advertising

New Haven weather history for previous 24 hours

 ConditionsComfort  
Time TempWeatherWind HumidityBarometerVisibility
3:53 PM
Tue, Sep 1
82 °FSunny.7 mph53%30.02 "Hg10 mi
2:53 PM82 °FSunny.10 mph55%30.03 "Hg10 mi
1:53 PM81 °FScattered clouds.12 mph65%30.04 "Hg10 mi
12:53 PM81 °FPassing clouds.12 mph62%30.04 "Hg10 mi
11:53 AM85 °FPassing clouds.9 mph43%30.04 "Hg10 mi
10:53 AM83 °FPassing clouds.5 mph51%30.05 "Hg10 mi
9:53 AM79 °FSunny.9 mph60%30.05 "Hg10 mi
8:53 AM76 °FSunny.12 mph67%30.04 "Hg10 mi
7:53 AM72 °FSunny.8 mph78%30.04 "Hg10 mi
6:53 AM69 °FClear.6 mph84%30.03 "Hg9 mi
5:53 AM68 °FClear.3 mph84%30.01 "Hg9 mi
4:53 AM72 °FClear.3 mph76%29.99 "Hg10 mi
3:53 AM74 °FClear.7 mph74%29.99 "Hg10 mi
2:53 AM75 °FClear.7 mph71%29.99 "Hg10 mi
1:53 AM76 °FClear.6 mph69%29.99 "Hg10 mi
12:53 AM76 °FClear.5 mph69%29.99 "Hg10 mi
10:53 PM
Mon, Aug 31
75 °FPassing clouds.No wind85%29.97 "Hg9 mi
9:53 PM76 °FPassing clouds.No wind82%29.96 "Hg10 mi
8:53 PM77 °FClear.No wind82%29.95 "Hg10 mi
7:53 PM78 °FBroken clouds.6 mph71%29.94 "Hg10 mi
6:53 PM83 °FSunny.3 mph61%29.93 "Hg10 mi
Weather by CustomWeather, © 2015

See weather overviewHow to use our weather pages